Location: Helsinki
(60.1699°N, 24.9384°E)
Time: 12:52:50
(UTC+02:00)

Transit 2A Rocket - Pass Details

Date: 22 September 2023
Orbit: 593 x 903 km, 66.7° (Epoch: 06 December)

Event Time Altitude Azimuth Distance (km) Brightness Sun altitude
Rises 15:59:30 0° 178° (S) 3,325 8.9 22.1°
Reaches altitude 10° 16:02:30 10° 164° (SSE) 2,341 8.0 21.8°
Maximum altitude 16:06:27 21° 116° (ESE) 1,621 6.6 21.5°
Drops below altitude 10° 16:10:11 10° 67° (ENE) 2,195 6.9 21.1°
Sets 16:12:54 0° 52° (NE) 3,062 7.5 20.9°
